Track STARLINK-2184 now! 10-day predictions STARLINK-2184 is classified as:
1 47766U 21017AW 22224.75985725 .00002716 00000-0 20113-3 0 9997 2 47766 53.0560 324.6691 0001204 76.0384 284.0739 15.06401403 80822